This is the latest recevied weather packets stored in our database for station/object DL4MGC-10. If no packets are shown the sender has not sent any weather packets the latest 10 day(s).
| Time | Temp. | Humidity | Pressure | Rain* | Wind** | Luminosity | Snow |
|---|---|---|---|---|---|---|---|
| 1788527552 | 30.56° C | 48% | 1016 hPa | - | - | - | - |
| 1788526651 | 30° C | 48% | 1016.1 hPa | - | - | - | - |
| 1788525751 | 31.11° C | 48% | 1016.3 hPa | - | - | - | - |
| 1788524851 | 31.11° C | 48% | 1016.5 hPa | - | - | - | - |
| 1788523951 | 30.56° C | 48% | 1016.7 hPa | - | - | - | - |
| 1788523051 | 28.33° C | 50% | 1017 hPa | - | - | - | - |
| 1788522151 | 28.89° C | 49% | 1017.2 hPa | - | - | - | - |
| 1788521251 | 30° C | 50% | 1017.5 hPa | - | - | - | - |
| 1788520351 | 28.89° C | 50% | 1017.6 hPa | - | - | - | - |
| 1788519451 | 28.89° C | 50% | 1017.9 hPa | - | - | - | - |
| 1788518551 | 27.78° C | 52% | 1018 hPa | - | - | - | - |
| 1788517650 | 28.89° C | 53% | 1018.4 hPa | - | - | - | - |
| 1788516750 | 27.78° C | 53% | 1018.6 hPa | - | - | - | - |
| 1788515850 | 27.22° C | 54% | 1019 hPa | - | - | - | - |
| 1788514950 | 26.67° C | 55% | 1019.3 hPa | - | - | - | - |
| 1788514050 | 26.67° C | 54% | 1019.4 hPa | - | - | - | - |
| 1788513150 | 26.67° C | 56% | 1019.6 hPa | - | - | - | - |
| 1788512250 | 26.11° C | 58% | 1019.9 hPa | - | - | - | - |
| 1788511350 | 25.56° C | 57% | 1019.9 hPa | - | - | - | - |
| 1788510450 | 24.44° C | 60% | 1020.1 hPa | - | - | - | - |
| 1788509550 | 24.44° C | 61% | 1020 hPa | - | - | - | - |
| 1788508649 | 23.89° C | 63% | 1020.1 hPa | - | - | - | - |
| 1788507749 | 23.89° C | 63% | 1020.4 hPa | - | - | - | - |
| 1788506849 | 23.89° C | 66% | 1020.4 hPa | - | - | - | - |
| 1788505949 | 22.22° C | 69% | 1020.4 hPa | - | - | - | - |
* Rain since midnight (hover to see other rain measurements)
** Current wind speed in m/s (hover to see current wind gust speed)